• In Österreich
  • Länderverzeichnis
  • Für 7 Tage
  • Wassertemperatur
  • Satellitenkarten
  • Wetterkarte
  • News
  • Widgets
  • user-avatar
    Anmelden

    Stündliche Wetter Poplyahny

    Heute, 20 Juli, Freitag

    Zeit Temperatur Niederschläge Wind Luftdruck Luftfeuchtigkeit
    00:00 +18°C° 0 mm 2 m/S 747 mmHg 96%
    01:00 +18°C° 0 mm 2 m/S 747 mmHg 97%
    02:00 +18°C° 0 mm 2 m/S 747 mmHg 97%
    03:00 +18°C° 0 mm 2 m/S 747 mmHg 97%
    04:00 +18°C° 0 mm 2 m/S 747 mmHg 97%
    05:00 +18°C° 0 mm 2 m/S 747 mmHg 97%
    06:00 +19°C° 0,1 mm 2 m/S 747 mmHg 96%
    07:00 +19°C° 0,1 mm 2 m/S 747 mmHg 94%
    08:00 +21°C° 0 mm 2 m/S 746 mmHg 91%
    09:00 +23°C° 0,3 mm 2 m/S 746 mmHg 88%
    10:00 +23°C° 0,3 mm 2 m/S 746 mmHg 85%
    11:00 +24°C° 0,3 mm 2 m/S 746 mmHg 82%
    12:00 +25°C° 0,5 mm 2 m/S 746 mmHg 81%
    13:00 +26°C° 0,5 mm 2 m/S 745 mmHg 79%
    14:00 +26°C° 0,5 mm 2 m/S 745 mmHg 78%
    15:00 +26°C° 0,5 mm 2 m/S 745 mmHg 79%
    16:00 +26°C° 0,5 mm 2 m/S 745 mmHg 80%
    17:00 +26°C° 0,5 mm 2 m/S 745 mmHg 81%
    18:00 +25°C° 0,3 mm 2 m/S 745 mmHg 85%
    19:00 +24°C° 0,3 mm 1 m/S 745 mmHg 90%
    20:00 +23°C° 0,3 mm 1 m/S 744 mmHg 95%
    21:00 +22°C° 0 mm 1 m/S 744 mmHg 96%
    22:00 +21°C° 0 mm 1 m/S 744 mmHg 97%
    23:00 +20°C° 0 mm 1 m/S 744 mmHg 97%

    Morgen, 21 Juli, Samstag

    Zeit Temperatur Niederschläge Wind Luftdruck Luftfeuchtigkeit
    00:00 +20°C° 0 mm 1 m/S 745 mmHg 98%
    01:00 +20°C° 0 mm 1 m/S 745 mmHg 98%
    02:00 +18°C° 0 mm 0 m/S 745 mmHg 98%
    03:00 +18°C° 0 mm 0 m/S 745 mmHg 98%
    04:00 +18°C° 0 mm 0 m/S 745 mmHg 98%
    05:00 +18°C° 0 mm 0 m/S 745 mmHg 98%
    06:00 +19°C° 0 mm 0 m/S 745 mmHg 95%
    07:00 +20°C° 0 mm 0 m/S 745 mmHg 92%
    08:00 +22°C° 0 mm 0 m/S 745 mmHg 89%
    09:00 +23°C° 0,1 mm 0 m/S 746 mmHg 83%
    10:00 +26°C° 0,1 mm 1 m/S 746 mmHg 77%
    11:00 +28°C° 0,1 mm 1 m/S 746 mmHg 71%
    12:00 +28°C° 0,6 mm 1 m/S 746 mmHg 68%
    13:00 +29°C° 0,6 mm 1 m/S 745 mmHg 66%
    14:00 +29°C° 0,6 mm 1 m/S 745 mmHg 64%
    15:00 +29°C° 1,1 mm 1 m/S 745 mmHg 69%
    16:00 +28°C° 1,1 mm 1 m/S 746 mmHg 74%
    17:00 +28°C° 1,1 mm 1 m/S 746 mmHg 78%
    18:00 +26°C° 0,9 mm 1 m/S 746 mmHg 83%
    19:00 +25°C° 0,9 mm 1 m/S 746 mmHg 87%
    20:00 +23°C° 0,9 mm 1 m/S 746 mmHg 92%
    21:00 +23°C° 0,2 mm 1 m/S 746 mmHg 93%
    22:00 +22°C° 0,2 mm 1 m/S 746 mmHg 94%
    23:00 +22°C° 0,2 mm 1 m/S 746 mmHg 95%

    übermorgen, 22 Juli, Sonntag

    Zeit Temperatur Niederschläge Wind Luftdruck Luftfeuchtigkeit
    00:00 +21°C° 0,5 mm 1 m/S 746 mmHg 96%
    01:00 +21°C° 0,5 mm 1 m/S 746 mmHg 97%
    02:00 +21°C° 0,5 mm 1 m/S 746 mmHg 97%
    03:00 +21°C° 0,7 mm 1 m/S 746 mmHg 97%
    04:00 +21°C° 0,7 mm 1 m/S 746 mmHg 98%
    05:00 +21°C° 0,7 mm 1 m/S 746 mmHg 98%
    06:00 +22°C° 0,1 mm 1 m/S 746 mmHg 96%
    07:00 +22°C° 0,1 mm 1 m/S 747 mmHg 94%
    08:00 +23°C° 0,1 mm 1 m/S 747 mmHg 92%
    09:00 +24°C° 1,4 mm 2 m/S 747 mmHg 90%
    10:00 +25°C° 1,4 mm 2 m/S 747 mmHg 88%
    11:00 +26°C° 1,4 mm 2 m/S 747 mmHg 85%
    12:00 +26°C° 1,6 mm 2 m/S 747 mmHg 86%
    13:00 +25°C° 1,6 mm 2 m/S 747 mmHg 87%
    14:00 +25°C° 1,6 mm 2 m/S 747 mmHg 87%
    15:00 +25°C° 1,4 mm 2 m/S 747 mmHg 88%
    16:00 +24°C° 1,4 mm 2 m/S 747 mmHg 89%
    17:00 +24°C° 1,4 mm 2 m/S 747 mmHg 90%
    18:00 +23°C° 0,4 mm 2 m/S 747 mmHg 91%
    19:00 +23°C° 0,4 mm 2 m/S 747 mmHg 92%
    20:00 +21°C° 0,4 mm 2 m/S 747 mmHg 93%
    21:00 +21°C° 0 mm 2 m/S 747 mmHg 94%
    22:00 +21°C° 0 mm 2 m/S 747 mmHg 95%
    23:00 +20°C° 0 mm 2 m/S 748 mmHg 96%

    23 Juli, Montag

    Zeit Temperatur Niederschläge Wind Luftdruck Luftfeuchtigkeit
    00:00 +20°C° 0,1 mm 2 m/S 748 mmHg 96%
    01:00 +20°C° 0,1 mm 2 m/S 748 mmHg 96%
    02:00 +20°C° 0,1 mm 2 m/S 748 mmHg 97%
    03:00 +20°C° 0,1 mm 2 m/S 748 mmHg 97%
    04:00 +20°C° 0,1 mm 2 m/S 748 mmHg 97%
    05:00 +20°C° 0,1 mm 2 m/S 748 mmHg 97%
    06:00 +20°C° 0,1 mm 2 m/S 748 mmHg 95%
    07:00 +21°C° 0,1 mm 2 m/S 748 mmHg 93%
    08:00 +21°C° 0,1 mm 2 m/S 748 mmHg 91%
    09:00 +23°C° 0 mm 2 m/S 748 mmHg 87%
    10:00 +24°C° 0 mm 3 m/S 748 mmHg 82%
    11:00 +24°C° 0 mm 3 m/S 748 mmHg 78%
    12:00 +25°C° 0,1 mm 3 m/S 748 mmHg 75%
    13:00 +25°C° 0,1 mm 3 m/S 748 mmHg 73%
    14:00 +26°C° 0,1 mm 3 m/S 748 mmHg 70%
    15:00 +26°C° 0,1 mm 3 m/S 748 mmHg 71%
    16:00 +25°C° 0,1 mm 2 m/S 748 mmHg 73%
    17:00 +25°C° 0,1 mm 2 m/S 748 mmHg 75%
    18:00 +24°C° 0,1 mm 2 m/S 748 mmHg 80%
    19:00 +23°C° 0,1 mm 2 m/S 748 mmHg 85%
    20:00 +22°C° 0,1 mm 1 m/S 748 mmHg 90%
    21:00 +21°C° 0 mm 1 m/S 749 mmHg 92%
    22:00 +20°C° 0 mm 2 m/S 749 mmHg 94%
    23:00 +19°C° 0 mm 2 m/S 749 mmHg 96%

    24 Juli, Dienstag

    Zeit Temperatur Niederschläge Wind Luftdruck Luftfeuchtigkeit
    00:00 +19°C° 0 mm 2 m/S 749 mmHg 96%
    01:00 +19°C° 0 mm 2 m/S 749 mmHg 97%
    02:00 +19°C° 0 mm 1 m/S 749 mmHg 98%
    03:00 +18°C° 0 mm 2 m/S 749 mmHg 98%
    04:00 +18°C° 0 mm 2 m/S 749 mmHg 98%
    05:00 +18°C° 0 mm 2 m/S 749 mmHg 98%
    06:00 +19°C° 0 mm 2 m/S 749 mmHg 93%
    07:00 +20°C° 0 mm 2 m/S 749 mmHg 89%
    08:00 +21°C° 0 mm 3 m/S 749 mmHg 85%
    09:00 +23°C° 0,1 mm 2 m/S 750 mmHg 83%
    10:00 +23°C° 0,1 mm 2 m/S 750 mmHg 80%
    11:00 +24°C° 0,1 mm 2 m/S 750 mmHg 78%
    12:00 +24°C° 0,1 mm 3 m/S 750 mmHg 76%
    13:00 +25°C° 0,1 mm 3 m/S 749 mmHg 73%
    14:00 +25°C° 0,1 mm 3 m/S 749 mmHg 71%
    15:00 +25°C° 0 mm 3 m/S 749 mmHg 72%
    16:00 +25°C° 0 mm 3 m/S 749 mmHg 73%
    17:00 +25°C° 0 mm 3 m/S 749 mmHg 74%
    18:00 +24°C° 0 mm 3 m/S 750 mmHg 79%
    19:00 +22°C° 0 mm 3 m/S 750 mmHg 85%
    20:00 +21°C° 0 mm 2 m/S 750 mmHg 90%
    21:00 +20°C° 0 mm 2 m/S 750 mmHg 93%
    22:00 +19°C° 0 mm 2 m/S 750 mmHg 95%
    23:00 +18°C° 0 mm 2 m/S 750 mmHg 98%

    25 Juli, Mittwoch

    Zeit Temperatur Niederschläge Wind Luftdruck Luftfeuchtigkeit
    00:00 +18°C° 0 mm 2 m/S 750 mmHg 98%
    01:00 +18°C° 0 mm 2 m/S 750 mmHg 98%
    02:00 +18°C° 0 mm 2 m/S 750 mmHg 98%
    03:00 +18°C° 0 mm 2 m/S 750 mmHg 98%
    04:00 +18°C° 0 mm 2 m/S 751 mmHg 98%
    05:00 +18°C° 0 mm 2 m/S 751 mmHg 98%
    06:00 +19°C° 0 mm 2 m/S 751 mmHg 95%
    07:00 +20°C° 0 mm 2 m/S 751 mmHg 92%
    08:00 +21°C° 0 mm 2 m/S 751 mmHg 89%
    09:00 +21°C° 0 mm 2 m/S 751 mmHg 87%
    10:00 +23°C° 0 mm 2 m/S 751 mmHg 86%
    11:00 +23°C° 0 mm 2 m/S 751 mmHg 84%
    12:00 +24°C° 0 mm 2 m/S 751 mmHg 80%
    13:00 +25°C° 0 mm 2 m/S 751 mmHg 76%
    14:00 +26°C° 0 mm 2 m/S 751 mmHg 72%
    15:00 +27°C° 0,3 mm 2 m/S 751 mmHg 72%
    16:00 +27°C° 0,3 mm 2 m/S 751 mmHg 72%
    17:00 +28°C° 0,3 mm 2 m/S 751 mmHg 73%
    18:00 +26°C° 0,3 mm 2 m/S 751 mmHg 79%
    19:00 +25°C° 0,3 mm 2 m/S 751 mmHg 85%
    20:00 +23°C° 0,3 mm 2 m/S 751 mmHg 92%
    21:00 +23°C° 0 mm 2 m/S 751 mmHg 93%
    22:00 +21°C° 0 mm 2 m/S 751 mmHg 95%
    23:00 +21°C° 0 mm 2 m/S 751 mmHg 96%
    Mehr zeigen